[[{"header":{"parameterUnit":"m.s-1","parameterCategory":2,"la1":30.2992,"la2":30.254,"lo1":-89.0895,"lo2":-89.0443,"dy":0.0025,"dx":0.0025,"nx":19,"ny":19,"refTime":"2026-04-12T21:00:00:Z","depth":"0","parameterNumber":2,"parameterNumberName":"U-component_of_CURRENTS"},"data":[0,0,0,-0.2513,-0.2512,-0.2519,-0.252,-0.2599,-0.26,0,0,0,0,0,0,0,0,0,0,0,-0.2498,-0.2497,-0.2513,-0.2512,-0.2519,-0.252,-0.2599,-0.26,0,0,0,0,0,0,0,0,0,0,0,-0.2498,-0.2497,-0.2496,-0.2512,-0.2519,-0.252,-0.2599,-0.2582,0,0,0,0,0,0,0,0,0,0,-0.2569,-0.256,-0.2497,-0.2496,-0.2512,-0.2519,-0.252,-0.2581,-0.2583,-0.2608,0,-0.2578,0,-0.2586,-0.2605,-0.2605,0,0,0,-0.2537,-0.2558,-0.2532,-0.2496,-0.2511,-0.2519,-0.2523,-0.2582,-0.2584,-0.2612,-0.2579,-0.2582,-0.2587,-0.2605,-0.2605,-0.2622,-0.2622,0,0,-0.2536,-0.2538,-0.2529,-0.2532,-0.2474,-0.2523,-0.2523,-0.2583,-0.2588,-0.2579,-0.2584,-0.2589,-0.2606,-0.2606,-0.2622,-0.2622,0,0,0,-0.2518,-0.2537,-0.2509,-0.2529,-0.2522,-0.2522,-0.2523,-0.2586,-0.2566,-0.2585,-0.259,-0.2606,-0.2607,-0.2623,-0.2622,-0.2513,0,0,0,-0.2519,-0.2524,-0.2508,-0.2515,-0.2519,-0.2551,-0.2524,-0.2562,-0.2569,-0.2589,-0.2606,-0.2607,-0.2623,-0.2622,-0.2517,-0.2404,0,0,0,-0.2504,-0.2525,-0.2506,-0.2514,-0.2504,-0.2549,-0.2536,-0.2564,-0.2572,-0.2605,-0.2608,-0.2623,-0.2622,-0.252,-0.2413,-0.231,0,0,0,-0.2535,-0.2457,-0.2506,-0.2457,-0.2503,-0.25,-0.2536,-0.2559,-0.2583,-0.2606,-0.2623,-0.2622,-0.2521,-0.2418,-0.2315,-0.2175,-0.2137,0,0,-0.2443,-0.2447,-0.2423,-0.2465,-0.2435,-0.2504,-0.2485,-0.253,-0.258,-0.2614,-0.2614,-0.2516,-0.2413,-0.2311,-0.2129,-0.2091,0,0,0,-0.2401,-0.2372,-0.2382,-0.2381,-0.2411,-0.24,-0.2478,-0.249,-0.2505,-0.2584,-0.253,-0.2468,-0.2407,-0.2336,-0.2307,-0.2271,-0.2618,-0.2618,-0.2619,-0.2279,-0.2304,-0.2251,-0.2275,-0.2287,-0.2343,-0.2317,-0.2342,-0.2461,-0.2441,-0.2393,-0.2249,-0.2176,-0.2152,-0.2119,-0.2443,-0.2443,-0.2443,-0.2442,-0.2121,-0.2067,-0.2121,-0.2071,-0.2103,-0.2103,-0.2135,-0.2187,-0.2158,-0.2288,-0.2237,-0.2241,-0.2112,-0.209,-0.2435,-0.2437,-0.2438,-0.2438,-0.2439,-0.2011,-0.1969,-0.1966,-0.1899,-0.1863,-0.1932,-0.1859,-0.1931,-0.2,-0.1953,-0.1921,-0.1922,-0.1885,-0.1977,-0.1976,-0.1975,-0.1974,-0.1973,-0.1973,-0.187,-0.1853,-0.1775,-0.173,-0.1695,-0.1676,-0.1709,-0.1696,-0.169,-0.1733,-0.1734,-0.1813,-0.2106,-0.2105,-0.1958,-0.1961,-0.1963,-0.1964,-0.1965,-0.1689,-0.1722,-0.1575,-0.153,-0.1455,-0.139,-0.1468,-0.1404,-0.1385,-0.1328,-0.1404,-0.161,-0.1612,-0.1637,-0.1625,-0.1362,-0.1362,-0.1362,-0.1362,-0.1592,-0.1591,-0.1408,-0.1295,-0.1221,-0.1244,-0.1138,-0.1126,-0.1105,-0.1064,-0.1138,-0.1236,-0.1262,-0.1253,-0.1287,-0.1273,-0.0926,-0.0925,-0.0925,-0.1488,-0.1444,-0.1284,-0.1186,-0.1109,-0.109,-0.0966,-0.0849,-0.0818,-0.0912,-0.1108,-0.1126,-0.1288,-0.1332,-0.1346,-0.1396,-0.1386,0,0]},{"header":{"parameterUnit":"m.s-1","parameterCategory":2,"la1":30.2992,"la2":30.254,"lo1":-89.0895,"lo2":-89.0443,"dy":0.0025,"dx":0.0025,"nx":19,"ny":19,"refTime":"2026-04-12T21:00:00:Z","depth":"0","parameterNumber":3,"parameterNumberName":"V-component_of_CURRENTS"},"data":[0,0,0,0.017,0.0173,0.0361,0.0362,0.0553,0.0554,0,0,0,0,0,0,0,0,0,0,0,0.0085,0.0086,0.017,0.0174,0.0361,0.0362,0.0552,0.0554,0,0,0,0,0,0,0,0,0,0,0,0.0085,0.0086,0.0086,0.0174,0.0361,0.0362,0.0552,0.0427,0,0,0,0,0,0,0,0,0,0,0.0253,0.016,0.0086,0.0086,0.0175,0.036,0.0362,0.0422,0.0435,0.0448,0,0.0455,0,0.0509,0.0564,0.0565,0,0,0,0.0191,0.0149,0.0215,0.0086,0.0177,0.036,0.0281,0.0429,0.0444,0.0465,0.0458,0.0467,0.0513,0.0565,0.0566,0.0591,0.0591,0,0,0.018,0.0113,0.0204,0.0223,0.0196,0.0275,0.0287,0.0439,0.0431,0.0459,0.0472,0.0516,0.0566,0.0567,0.0592,0.0591,0,0,0,0.0139,0.0105,0.0169,0.0214,0.0253,0.028,0.0294,0.0424,0.0449,0.0474,0.0518,0.0567,0.0569,0.0593,0.0592,0.045,0,0,0,0.0134,0.0081,0.0163,0.0125,0.0249,0.0344,0.0274,0.0438,0.0458,0.0517,0.0567,0.057,0.0594,0.0592,0.0456,0.041,0,0,0,0.0082,0.0076,0.0092,0.012,0.0199,0.0344,0.0378,0.0444,0.0483,0.0565,0.0571,0.0595,0.0593,0.0461,0.0419,0.044,0,0,0,0.0018,-0.0028,0.0089,0.0048,0.0197,0.0249,0.0378,0.0424,0.0477,0.0568,0.0594,0.0592,0.0463,0.0424,0.0444,0.0566,0.0558,0,0,-0.0083,-0.0042,-0.0066,0.0043,0.0052,0.0226,0.023,0.0357,0.0455,0.0546,0.0548,0.0454,0.042,0.0441,0.0449,0.0445,0,0,0,-0.0126,-0.0137,-0.0119,-0.0078,0.0009,0.0102,0.0237,0.0298,0.0385,0.0478,0.0453,0.0436,0.0454,0.0536,0.0531,0.0706,0.0583,0.0583,0.0583,-0.0309,-0.0247,-0.027,-0.018,-0.0138,0.0011,0.0073,0.0188,0.0281,0.0285,0.0318,0.0234,0.0315,0.0314,0.049,0.0309,0.0308,0.0308,0.0307,-0.0434,-0.0432,-0.0352,-0.0351,-0.0236,-0.0202,-0.0053,0.0021,0.0118,0.0186,0.0211,0.0378,0.0302,0.0492,0.0298,0.03,0.0301,0.0302,0.0302,-0.0526,-0.0515,-0.05,-0.0465,-0.0415,-0.0295,-0.0219,-0.0119,0.0001,0.0013,0.0201,0.0206,0.0384,0.0052,0.0052,0.0052,0.0052,0.0052,0.0052,-0.0615,-0.0596,-0.0601,-0.0563,-0.0527,-0.0456,-0.0301,-0.0208,-0.0031,0.0077,0.008,0.038,0.0159,0.0182,0.0049,0.005,0.005,0.005,0.005,-0.0704,-0.0685,-0.0692,-0.0673,-0.0593,-0.0506,-0.0372,-0.0111,-0.0012,0.0102,0.0402,0.0147,0.023,0.0237,0.0264,0.016,0.016,0.016,0.016,-0.0748,-0.0746,-0.0731,-0.0704,-0.0651,-0.0522,-0.0238,0.0072,0.0384,0.0545,0.0541,0.0622,0.061,0.072,0.0716,0.0755,0.0777,0.0778,0.0779,-0.0775,-0.0763,-0.0756,-0.0726,-0.0668,-0.0505,-0.0144,0.0426,0.0795,0.0817,0.0753,0.0727,0.0856,0.0823,0.1007,0.0986,0.1055,0,0]}],[{"header":{"parameterUnit":"m.s-1","parameterCategory":2,"la1":30.2992,"la2":30.254,"lo1":-89.0895,"lo2":-89.0443,"dy":0.0025,"dx":0.0025,"nx":19,"ny":19,"refTime":"2026-04-12T21:00:00:Z","depth":"2","parameterNumber":2,"parameterNumberName":"U-component_of_CURRENTS"},"data":[0,0,0,-0.1953,-0.1954,-0.2068,-0.2069,-0.2178,-0.2179,0,0,0,0,0,0,0,0,0,0,0,-0.1916,-0.1917,-0.1953,-0.1954,-0.2068,-0.2069,-0.2178,-0.2179,0,0,0,0,0,0,0,0,0,0,0,-0.1916,-0.1917,-0.1917,-0.1955,-0.2068,-0.2069,-0.2178,-0.2109,0,0,0,0,0,0,0,0,0,0,-0.2006,-0.1968,-0.1917,-0.1917,-0.1955,-0.2067,-0.2069,-0.2106,-0.2113,-0.2107,0,-0.2107,0,-0.2129,-0.2183,-0.2183,0,0,0,-0.1985,-0.1963,-0.1984,-0.1917,-0.1956,-0.2067,-0.2025,-0.2111,-0.2118,-0.2116,-0.2109,-0.2114,-0.2131,-0.2183,-0.2183,-0.2287,-0.2288,0,0,-0.1979,-0.1951,-0.1979,-0.1988,-0.1962,-0.2021,-0.2028,-0.2116,-0.2118,-0.211,-0.2116,-0.2133,-0.2183,-0.2184,-0.2286,-0.2287,0,0,0,-0.194,-0.1947,-0.1968,-0.1983,-0.1998,-0.2024,-0.2032,-0.2115,-0.2119,-0.2118,-0.2134,-0.2184,-0.2184,-0.2286,-0.2287,-0.2164,0,0,0,-0.1938,-0.1922,-0.1965,-0.1952,-0.1995,-0.2062,-0.2029,-0.2113,-0.2124,-0.2133,-0.2184,-0.2185,-0.2285,-0.2286,-0.2166,-0.2065,0,0,0,-0.1915,-0.192,-0.1924,-0.1949,-0.1984,-0.2061,-0.2073,-0.2117,-0.2132,-0.2183,-0.2185,-0.2284,-0.2286,-0.2167,-0.207,-0.1982,0,0,0,-0.1898,-0.189,-0.1923,-0.195,-0.1982,-0.2066,-0.2073,-0.2155,-0.2204,-0.2184,-0.2285,-0.2287,-0.2168,-0.2074,-0.1986,-0.184,-0.181,0,0,-0.1878,-0.1887,-0.1913,-0.1945,-0.1982,-0.2053,-0.2091,-0.2158,-0.2226,-0.2256,-0.226,-0.2165,-0.2071,-0.1983,-0.1941,-0.1906,0,0,0,-0.1903,-0.1905,-0.1933,-0.1965,-0.2035,-0.2037,-0.2135,-0.2148,-0.2201,-0.2255,-0.2236,-0.218,-0.2127,-0.2052,-0.2026,-0.2295,-0.2295,-0.2294,-0.2294,-0.1811,-0.1872,-0.1876,-0.1937,-0.1983,-0.2047,-0.2044,-0.2084,-0.2185,-0.2199,-0.2134,-0.2053,-0.1978,-0.1955,-0.2224,-0.2223,-0.2223,-0.2222,-0.2222,-0.1747,-0.1737,-0.1795,-0.1819,-0.1841,-0.188,-0.1915,-0.1962,-0.1953,-0.2072,-0.2028,-0.1995,-0.1918,-0.2214,-0.2216,-0.2217,-0.2218,-0.2218,-0.2219,-0.1656,-0.1644,-0.1682,-0.1686,-0.1673,-0.1744,-0.1691,-0.1756,-0.1819,-0.1785,-0.1751,-0.1752,-0.1901,-0.1804,-0.1804,-0.1803,-0.1802,-0.1802,-0.1801,-0.1528,-0.1555,-0.1527,-0.1547,-0.1535,-0.1535,-0.1571,-0.1561,-0.1548,-0.1581,-0.1582,-0.1911,-0.1925,-0.1879,-0.1789,-0.1791,-0.1792,-0.1794,-0.1794,-0.1397,-0.143,-0.1375,-0.1359,-0.1338,-0.1282,-0.1358,-0.1292,-0.1277,-0.1217,-0.1453,-0.1466,-0.1474,-0.1497,-0.1444,-0.1245,-0.1245,-0.1245,-0.1245,-0.129,-0.131,-0.1224,-0.1169,-0.1131,-0.1151,-0.1036,-0.0997,-0.1026,-0.1015,-0.1026,-0.1107,-0.1134,-0.113,-0.1162,-0.1107,-0.0819,-0.0818,-0.0818,-0.1179,-0.1184,-0.1075,-0.1065,-0.1029,-0.1007,-0.0855,-0.0687,-0.065,-0.0807,-0.1012,-0.1204,-0.1359,-0.1387,-0.1419,-0.1455,-0.1381,0,0]},{"header":{"parameterUnit":"m.s-1","parameterCategory":2,"la1":30.2992,"la2":30.254,"lo1":-89.0895,"lo2":-89.0443,"dy":0.0025,"dx":0.0025,"nx":19,"ny":19,"refTime":"2026-04-12T21:00:00:Z","depth":"2","parameterNumber":3,"parameterNumberName":"V-component_of_CURRENTS"},"data":[0,0,0,-0.0163,-0.0159,0.008,0.0081,0.0278,0.0279,0,0,0,0,0,0,0,0,0,0,0,-0.0252,-0.0251,-0.0164,-0.0159,0.008,0.0081,0.0278,0.0279,0,0,0,0,0,0,0,0,0,0,0,-0.0253,-0.0252,-0.025,-0.0158,0.008,0.0081,0.0278,0.0129,0,0,0,0,0,0,0,0,0,0,-0.0088,-0.0186,-0.0252,-0.025,-0.0157,0.0079,0.0082,0.0123,0.0138,0.0133,0,0.016,0,0.0217,0.0288,0.0289,0,0,0,-0.014,-0.0199,-0.0112,-0.025,-0.0155,0.0079,-0.0022,0.0133,0.0149,0.0152,0.0164,0.0172,0.022,0.0289,0.029,0.0382,0.0382,0,0,-0.0153,-0.0228,-0.0123,-0.0102,-0.0107,-0.003,-0.0015,0.0144,0.0138,0.0165,0.0178,0.0224,0.029,0.0291,0.0382,0.0382,0,0,0,-0.0204,-0.0238,-0.0152,-0.0111,-0.0063,-0.0024,-0.0006,0.0131,0.0167,0.0181,0.0226,0.0291,0.0293,0.0382,0.0382,0.0246,0,0,0,-0.0211,-0.0267,-0.0158,-0.0203,-0.0065,0.0046,-0.0024,0.0156,0.0176,0.0225,0.0291,0.0294,0.0382,0.0382,0.025,0.0207,0,0,0,-0.0261,-0.0273,-0.0244,-0.0207,-0.0107,0.0045,0.0091,0.0163,0.0202,0.0289,0.0294,0.0382,0.0382,0.0253,0.0213,0.024,0,0,0,-0.0345,-0.034,-0.0247,-0.0235,-0.011,-0.0007,0.0091,0.017,0.0235,0.0292,0.0382,0.0382,0.0254,0.0216,0.0242,0.0333,0.033,0,0,-0.0388,-0.0348,-0.034,-0.025,-0.0197,-0.0038,0.0009,0.0138,0.0236,0.0325,0.0329,0.0249,0.0213,0.024,0.0334,0.033,0,0,0,-0.0385,-0.0378,-0.0349,-0.0291,-0.0186,-0.009,0.0049,0.0111,0.0217,0.0276,0.0287,0.0271,0.0291,0.0353,0.035,0.0382,0.0382,0.0382,0.0382,-0.0524,-0.0452,-0.0438,-0.0338,-0.0276,-0.0125,-0.0051,0.007,0.0149,0.0177,0.0187,0.0153,0.0216,0.0215,0.0212,0.0212,0.0211,0.0211,0.0211,-0.0588,-0.0569,-0.0492,-0.0453,-0.0347,-0.0287,-0.013,-0.006,0.0048,0.0106,0.0133,0.024,0.0204,0.0201,0.0202,0.0204,0.0205,0.0206,0.0206,-0.0671,-0.0649,-0.0618,-0.0552,-0.0488,-0.0363,-0.0275,-0.0172,-0.0054,-0.0036,0.0124,0.0128,0.0087,-0.0,-0.0,-0.0001,-0.0001,-0.0001,-0.0001,-0.0759,-0.0721,-0.0706,-0.0638,-0.0595,-0.0513,-0.0348,-0.0254,-0.0085,0.0016,0.0018,0.0085,0.0092,0.008,-0.0002,-0.0002,-0.0002,-0.0002,-0.0002,-0.0826,-0.081,-0.0782,-0.0752,-0.0653,-0.0568,-0.0423,-0.0176,-0.0072,0.0031,0.0078,0.0077,0.0151,0.0157,0.0151,0.0091,0.0091,0.0091,0.0092,-0.0877,-0.0866,-0.0819,-0.0773,-0.071,-0.0585,-0.0358,-0.0108,0.0079,0.0138,0.0136,0.0169,0.0166,0.0244,0.0248,0.0244,0.0209,0.0209,0.0209,-0.0907,-0.0879,-0.0858,-0.0797,-0.0727,-0.0582,-0.0328,-0.0006,0.0182,0.0208,0.0098,0.0111,0.0156,0.0152,0.0274,0.0278,0.0275,0,0]}],[{"header":{"parameterUnit":"m.s-1","parameterCategory":2,"la1":30.2992,"la2":30.254,"lo1":-89.0895,"lo2":-89.0443,"dy":0.0025,"dx":0.0025,"nx":19,"ny":19,"refTime":"2026-04-12T21:00:00:Z","depth":"4","parameterNumber":2,"parameterNumberName":"U-component_of_CURRENTS"},"data":[0,0,0,-0.0641,-0.0646,-0.0917,-0.0918,-0.1108,-0.1109,0,0,0,0,0,0,0,0,0,0,0,-0.0563,-0.0565,-0.064,-0.0646,-0.0916,-0.0918,-0.1108,-0.1109,0,0,0,0,0,0,0,0,0,0,0,-0.0562,-0.0565,-0.0567,-0.0647,-0.0916,-0.0918,-0.1108,-0.0947,0,0,0,0,0,0,0,0,0,0,-0.0706,-0.0642,-0.0564,-0.0567,-0.0648,-0.0916,-0.0918,-0.0942,-0.0957,-0.0934,0,-0.0986,0,-0.1032,-0.1116,-0.1117,0,0,0,-0.0668,-0.063,-0.0703,-0.0567,-0.0651,-0.0915,-0.0801,-0.0952,-0.0969,-0.0954,-0.0989,-0.0997,-0.1035,-0.1117,-0.1117,-0.1156,-0.1155,0,0,-0.0653,-0.0609,-0.0691,-0.0714,-0.073,-0.0792,-0.0809,-0.0964,-0.0981,-0.099,-0.1002,-0.1038,-0.1118,-0.1118,-0.1156,-0.1156,0,0,0,-0.0595,-0.0598,-0.0672,-0.0705,-0.0757,-0.0799,-0.0819,-0.0976,-0.1001,-0.1004,-0.1041,-0.1118,-0.112,-0.1157,-0.1156,-0.123,0,0,0,-0.0587,-0.0564,-0.0665,-0.0642,-0.0755,-0.0888,-0.0826,-0.0992,-0.1011,-0.104,-0.1118,-0.1121,-0.1157,-0.1156,-0.1229,-0.1224,0,0,0,-0.0549,-0.0559,-0.0594,-0.0639,-0.0745,-0.0887,-0.0924,-0.0998,-0.103,-0.1117,-0.1121,-0.1157,-0.1156,-0.1228,-0.1222,-0.1213,0,0,0,-0.0489,-0.0584,-0.0594,-0.0709,-0.0742,-0.0892,-0.0925,-0.1051,-0.113,-0.1119,-0.1157,-0.1156,-0.1228,-0.1222,-0.1213,-0.1043,0,0,0,-0.0578,-0.0593,-0.0662,-0.0678,-0.0799,-0.0855,-0.0973,-0.1091,-0.1094,-0.1099,-0.1103,-0.123,-0.1222,-0.1213,-0.099,0,0,0,0,-0.0671,-0.071,-0.0752,-0.0827,-0.0914,-0.098,-0.1083,-0.1106,-0.1167,-0.1132,-0.119,-0.1181,-0.1174,-0.1072,-0.1152,-0.1152,-0.1152,-0.1152,-0.1152,-0.0678,-0.0745,-0.0836,-0.0915,-0.099,-0.1074,-0.1131,-0.1161,-0.1184,-0.1201,-0.1215,-0.1214,-0.1107,-0.1201,-0.1201,-0.1202,-0.1202,-0.1202,-0.1202,-0.0751,-0.0795,-0.0866,-0.0983,-0.1031,-0.1117,-0.1181,-0.121,-0.1228,-0.1233,-0.1224,-0.1123,-0.1209,-0.1207,-0.1206,-0.1206,-0.1205,-0.1205,-0.1204,-0.0709,-0.0743,-0.083,-0.0961,-0.1053,-0.1142,-0.1181,-0.1233,-0.1259,-0.1269,-0.1132,-0.1232,-0.1256,-0.1275,-0.1275,-0.1275,-0.1275,-0.1275,-0.1275,-0.0614,-0.0705,-0.0789,-0.0935,-0.1013,-0.1101,-0.1186,-0.1187,-0.1226,-0.1148,-0.1277,-0.1237,-0.1234,-0.1256,-0.1274,-0.1274,-0.1274,-0.1274,-0.1274,-0.0549,-0.0596,-0.0715,-0.0803,-0.0973,-0.1017,-0.1121,-0.1074,-0.1057,-0.1,-0.1073,-0.1083,-0.1025,-0.1028,-0.104,-0.0995,-0.0993,-0.0991,0,-0.046,-0.0507,-0.0636,-0.075,-0.0846,-0.0957,-0.0902,-0.0915,-0.0924,-0.0898,-0.1063,-0.1149,-0.1154,-0.1094,-0.1092,-0.1108,0,0,0,-0.0379,-0.0449,-0.0499,-0.0667,-0.0783,-0.0807,-0.0878,-0.0829,-0.0942,-0.0846,-0.0937,-0.0951,-0.1143,-0.1271,-0.1207,-0.1204,-0.1234,0,0]},{"header":{"parameterUnit":"m.s-1","parameterCategory":2,"la1":30.2992,"la2":30.254,"lo1":-89.0895,"lo2":-89.0443,"dy":0.0025,"dx":0.0025,"nx":19,"ny":19,"refTime":"2026-04-12T21:00:00:Z","depth":"4","parameterNumber":3,"parameterNumberName":"V-component_of_CURRENTS"},"data":[0,0,0,-0.0501,-0.0499,-0.0356,-0.0355,-0.0216,-0.0215,0,0,0,0,0,0,0,0,0,0,0,-0.0553,-0.0553,-0.0502,-0.0498,-0.0356,-0.0355,-0.0216,-0.0215,0,0,0,0,0,0,0,0,0,0,0,-0.0554,-0.0553,-0.0552,-0.0498,-0.0356,-0.0355,-0.0217,-0.0311,0,0,0,0,0,0,0,0,0,0,-0.0443,-0.0494,-0.0553,-0.0552,-0.0497,-0.0356,-0.0355,-0.0315,-0.0305,-0.0297,0,-0.0281,0,-0.025,-0.0208,-0.0208,0,0,0,-0.0487,-0.0502,-0.046,-0.0552,-0.0496,-0.0356,-0.0417,-0.0309,-0.0298,-0.0285,-0.0279,-0.0273,-0.0247,-0.0207,-0.0207,-0.0093,-0.0092,0,0,-0.0494,-0.0528,-0.0468,-0.0454,-0.0467,-0.0421,-0.0412,-0.0301,-0.0297,-0.0278,-0.0269,-0.0245,-0.0207,-0.0206,-0.0093,-0.0093,0,0,0,-0.0525,-0.0534,-0.0493,-0.046,-0.0433,-0.0418,-0.0407,-0.0302,-0.0287,-0.0268,-0.0243,-0.0206,-0.0205,-0.0094,-0.0093,-0.0087,0,0,0,-0.0529,-0.0552,-0.0497,-0.0515,-0.0435,-0.0361,-0.041,-0.0295,-0.0281,-0.0244,-0.0206,-0.0204,-0.0094,-0.0093,-0.0088,-0.0111,0,0,0,-0.0559,-0.0555,-0.054,-0.0518,-0.046,-0.0361,-0.034,-0.0291,-0.0267,-0.0208,-0.0203,-0.0095,-0.0094,-0.0089,-0.0112,-0.0077,0,0,0,-0.0595,-0.0564,-0.0541,-0.0502,-0.0462,-0.0376,-0.034,-0.0276,-0.0229,-0.0206,-0.0094,-0.0093,-0.0089,-0.0112,-0.0078,-0.012,0,0,0,-0.0574,-0.0563,-0.0539,-0.0514,-0.0453,-0.0394,-0.031,-0.0239,-0.0208,-0.0133,-0.013,-0.0087,-0.0112,-0.0078,-0.0057,0,0,0,0,-0.0543,-0.0532,-0.0509,-0.0468,-0.0405,-0.0336,-0.0259,-0.0207,-0.0122,-0.0175,-0.0067,-0.0083,-0.0062,-0.0088,-0.0088,-0.0088,-0.0088,-0.0088,-0.0089,-0.0564,-0.0527,-0.0492,-0.044,-0.0387,-0.0286,-0.0215,-0.013,-0.0107,-0.0063,-0.0062,-0.0015,-0.004,-0.003,-0.003,-0.003,-0.003,-0.003,-0.003,-0.0554,-0.0534,-0.0491,-0.0451,-0.038,-0.0311,-0.0166,-0.0121,-0.0017,-0.0017,0.0005,-0.006,-0.0028,-0.0029,-0.0029,-0.0029,-0.0029,-0.0029,-0.0029,-0.0585,-0.0566,-0.0552,-0.05,-0.0433,-0.0335,-0.0236,-0.0138,-0.0038,-0.0004,-0.002,-0.0006,-0.0024,0.0009,0.0009,0.0009,0.0009,0.0009,0.0009,-0.0622,-0.0598,-0.0595,-0.0543,-0.0518,-0.0442,-0.0284,-0.0197,-0.0089,-0.003,-0.0014,-0.0002,-0.0003,-0.0021,0.001,0.001,0.001,0.001,0.001,-0.0634,-0.0641,-0.0638,-0.063,-0.0565,-0.05,-0.0374,-0.0198,-0.0107,-0.0036,-0.0019,-0.0018,-0.0025,-0.0026,-0.0045,-0.002,-0.0021,-0.0021,0,-0.0654,-0.0651,-0.0658,-0.0649,-0.0602,-0.0518,-0.0382,-0.0264,-0.0131,-0.014,-0.0118,-0.0107,-0.0103,-0.0121,-0.0122,-0.015,0,0,0,-0.0654,-0.0659,-0.0668,-0.0662,-0.0613,-0.0449,-0.0337,-0.0278,-0.0165,-0.0074,-0.0032,-0.0029,-0.0041,0.0013,0.0005,0.0003,-0.0026,0,0]}]]